Weather History for EHBK - July, 2013

Change the Weather History Date:

Saturday, July 20, 2013

  Actual Average Record
Temperature  
Mean Temperature 64 °F -  
Max Temperature 71 °F 71 °F 89 °F (1998)
Min Temperature 58 °F 54 °F 50 °F (2002)
Growing Degree Days 14 (Base 50)    
Moisture  
Dew Point 57 °F    
Average Humidity 74    
Maximum Humidity 88    
Minimum Humidity 54    
Precipitation  
Precipitation 0.00 in 0.09 in - ()
Sea Level Pressure  
Sea Level Pressure 30.16 in    
Wind  
Wind Speed 9 mph ()    
Max Wind Speed 13 mph    
Max Gust Speed -    
Visibility 6.7 miles    
Events      
Averages and records for this station are not official NWS values.
T = Trace of Precipitation, MM = Missing Value Source: Averaged Metar Reports

Daily Weather History Graph

Daily Weather History Graph

Search for Another Location

Airport or City:

Trip Planner

Search our weather history database for the weather conditions in past years. The results will help you decide how hot, cold, wet, or windy it might be!

Date:

Astronomy

Jul. 20, 2013 Rise Set
Actual Time 5:46 AM CEST 9:39 PM CEST
Civil Twilight 5:03 AM CEST 10:21 PM CEST
Nautical Twilight 4:04 AM CEST 11:20 PM CEST
Astronomical Twilight 2:19 AM CEST 1:00 AM CEST
Moon 7:25 PM CEST (7/20) 3:10 AM CEST (7/20)
Length of Visible Light 17h 17m
Length of Day
15h 52m
Waxing Gibbous, 92% of the Moon is Illuminated
Jul 20
Waxing Gibbous
Jul 22
Full
Jul 29
Last Quarter
Aug 6
New
Aug 14
First Quarter

Hourly Weather History & Observations

Time (CEST) Temp. Dew Point Humidity Pressure Visibility Wind Dir Wind Speed Gust Speed Precip Events Conditions
12:25 AM 66.2 °F 57.2 °F 73% 30.18 in 6.2 mi NE 11.5 mph - N/A   Unknown
12:55 AM 66.2 °F 57.2 °F 73% 30.18 in 6.2 mi NNE 10.4 mph - N/A   Unknown
1:25 AM 64.4 °F 57.2 °F 77% 30.18 in 6.2 mi NE 8.1 mph - N/A   Unknown
1:55 AM 62.6 °F 57.2 °F 82% 30.18 in 6.2 mi NE 9.2 mph - N/A   Unknown
2:00 AM 63 °F 56 °F 72% 30.19 in 17 mi NE 8.9 mph - -   Partly Cloudy
2:25 AM 62.6 °F 55.4 °F 77% 30.18 in 6.2 mi NNE 9.2 mph - N/A   Unknown
2:55 AM 62.6 °F 55.4 °F 77% 30.18 in 6.2 mi NNE 8.1 mph - N/A   Unknown
3:25 AM 60.8 °F 55.4 °F 82% 30.18 in 6.2 mi NNE 10.4 mph - N/A   Unknown
3:55 AM 60.8 °F 55.4 °F 82% 30.18 in 6.2 mi NNE 6.9 mph - N/A   Unknown
4:25 AM 60.8 °F 55.4 °F 82% 30.18 in 6.2 mi NNE 8.1 mph - N/A   Unknown
4:55 AM 59.0 °F 55.4 °F 88% 30.18 in 6.2 mi NNE 9.2 mph - N/A   Unknown
5:00 AM 59 °F 55 °F 82% 30.19 in 12 mi NNE 8.9 mph - -  
5:25 AM 59.0 °F 55.4 °F 88% 30.18 in 6.2 mi NNE 8.1 mph - N/A   Unknown
5:55 AM 59.0 °F 55.4 °F 88% 30.18 in 6.2 mi NE 10.4 mph - N/A   Unknown
6:25 AM 59.0 °F 55.4 °F 88% 30.18 in 6.2 mi NE 8.1 mph - N/A   Unknown
6:55 AM 59.0 °F 55.4 °F 88% 30.18 in 6.2 mi NE 8.1 mph - N/A   Unknown
7:25 AM 59.0 °F 55.4 °F 88% 30.18 in 6.2 mi NE 9.2 mph - N/A   Unknown
7:55 AM 60.8 °F 57.2 °F 88% 30.18 in 6.2 mi NE 9.2 mph - N/A   Unknown
8:00 AM 61 °F 57 °F 82% 30.18 in 7 mi NE 8.9 mph - -   Partly Cloudy
8:25 AM 62.6 °F 57.2 °F 82% 30.18 in 6.2 mi NE 10.4 mph - N/A   Unknown
8:55 AM 64.4 °F 57.2 °F 77% 30.18 in 6.2 mi NE 10.4 mph - N/A   Mostly Cloudy
9:25 AM 66.2 °F 59.0 °F 78% 30.18 in 6.2 mi NE 10.4 mph - N/A   Mostly Cloudy
9:55 AM 64.4 °F 57.2 °F 77% 30.18 in 6.2 mi NE 10.4 mph - N/A   Overcast
10:25 AM 64.4 °F 57.2 °F 77% 30.18 in 6.2 mi ENE 8.1 mph - N/A   Overcast
10:55 AM 66.2 °F 57.2 °F 73% 30.18 in 6.2 mi ENE 6.9 mph - N/A   Overcast
11:00 AM 66 °F 57 °F 66% 30.20 in 11 mi ENE 8.9 mph - -   Overcast
11:25 AM 66.2 °F 57.2 °F 73% 30.18 in 6.2 mi ENE 6.9 mph - N/A   Overcast
11:55 AM 68.0 °F 57.2 °F 68% 30.18 in 6.2 mi ENE 8.1 mph - N/A   Overcast
12:25 PM 68.0 °F 57.2 °F 68% 30.18 in 6.2 mi ENE 8.1 mph - N/A   Overcast
12:55 PM 68.0 °F 57.2 °F 68% 30.18 in 6.2 mi ENE 10.4 mph - N/A   Overcast
1:25 PM 68.0 °F 57.2 °F 68% 30.18 in 6.2 mi NE 8.1 mph - N/A   Overcast
1:55 PM 68.0 °F 57.2 °F 68% 30.18 in 6.2 mi ENE 9.2 mph - N/A   Overcast
2:00 PM 68 °F 57 °F 60% 30.18 in 12 mi NE 8.9 mph - -   Partly Cloudy
2:25 PM 68.0 °F 57.2 °F 68% 30.15 in 6.2 mi NE 9.2 mph - N/A   Overcast
2:55 PM 69.8 °F 59.0 °F 68% 30.15 in 6.2 mi NE 9.2 mph - N/A   Overcast
3:25 PM 69.8 °F 57.2 °F 64% 30.15 in 6.2 mi NE 6.9 mph - N/A   Overcast
3:55 PM 69.8 °F 59.0 °F 68% 30.15 in 6.2 mi NE 10.4 mph - N/A   Overcast
4:25 PM 71.6 °F 57.2 °F 60% 30.15 in 6.2 mi ENE 10.4 mph - N/A   Mostly Cloudy
4:55 PM 71.6 °F 59.0 °F 64% 30.15 in 6.2 mi ENE 9.2 mph - N/A   Mostly Cloudy
5:00 PM 71 °F 58 °F 54% 30.16 in 7 mi NE 11.2 mph - -   Mostly Cloudy
5:25 PM 71.6 °F 59.0 °F 64% 30.15 in 6.2 mi NE 9.2 mph - N/A   Mostly Cloudy
5:55 PM 71.6 °F 59.0 °F 64% 30.12 in 6.2 mi NE 10.4 mph - N/A   Partly Cloudy
6:25 PM 71.6 °F 57.2 °F 60% 30.12 in 6.2 mi NE 9.2 mph - N/A   Unknown
6:55 PM 71.6 °F 59.0 °F 64% 30.12 in 6.2 mi NE 10.4 mph - N/A   Unknown
7:25 PM 69.8 °F 59.0 °F 68% 30.12 in 6.2 mi NE 11.5 mph - N/A   Unknown
7:55 PM 69.8 °F 57.2 °F 64% 30.12 in 6.2 mi NE 12.7 mph - N/A   Unknown
8:00 PM 70 °F 58 °F 58% 30.13 in 7 mi NE 13.4 mph - -   Partly Cloudy
8:25 PM 69.8 °F 59.0 °F 68% 30.12 in 6.2 mi NE 10.4 mph - N/A   Unknown
8:55 PM 68.0 °F 59.0 °F 73% 30.12 in 6.2 mi NE 9.2 mph - N/A   Unknown
9:25 PM 68.0 °F 59.0 °F 73% 30.12 in 6.2 mi NE 8.1 mph - N/A   Unknown
9:55 PM 66.2 °F 59.0 °F 78% 30.12 in 6.2 mi NE 8.1 mph - N/A   Unknown
10:25 PM 64.4 °F 57.2 °F 77% 30.12 in 6.2 mi NE 8.1 mph - N/A   Unknown
10:55 PM 62.6 °F 57.2 °F 82% 30.12 in 6.2 mi NE 5.8 mph - N/A   Unknown
11:00 PM 63 °F 58 °F 77% 30.15 in 7 mi NE 6.7 mph - -  
11:25 PM 62.6 °F 57.2 °F 82% 30.12 in 6.2 mi NE 5.8 mph - N/A   Unknown
11:55 PM 60.8 °F 57.2 °F 88% 30.12 in 6.2 mi NE 6.9 mph - N/A   Unknown